Location: Wells
(51.2093°N, 2.6446°W)
Time: 09:53:07
(UTC+01:00)

CUTE-I - Pass Details

Date: 14 March 2026
Orbit: 804 x 818 km, 98.7° (Epoch: 20 April)

Event Time Altitude Azimuth Distance (km) Brightness Sun altitude
Rises 05:18:29 0° 27° (NNE) 3,331 ? -11.5°
Reaches altitude 10° 05:21:37 10° 46° (NE) 2,394 ? -11.0°
Maximum altitude 05:25:08 18° 88° (E) 1,900 ? -10.5°
Drops below altitude 10° 05:28:38 10° 130° (SE) 2,384 ? -10.0°
Sets 05:31:45 0° 149° (SSE) 3,311 ? -9.5°
